TimeCST,TemperatureF,Dew PointF,Humidity,Sea Level PressureIn,VisibilityMPH,Wind Direction,Wind SpeedMPH,Gust SpeedMPH,PrecipitationIn,Events,Conditions,WindDirDegrees,DateUTC
12:53 AM,15.1,12.0,88,29.95,10.0,Calm,Calm,-,N/A,,Clear,0,2013-01-08 06:53:00
1:53 AM,15.1,12.0,88,29.91,10.0,Calm,Calm,-,N/A,,Clear,0,2013-01-08 07:53:00
2:53 AM,10.9,8.1,88,29.91,10.0,SSW,3.5,-,N/A,,Clear,200,2013-01-08 08:53:00
3:53 AM,10.9,8.1,88,29.90,10.0,SSW,5.8,-,N/A,,Clear,200,2013-01-08 09:53:00
4:53 AM,10.0,9.0,95,29.88,10.0,Calm,Calm,-,N/A,,Clear,0,2013-01-08 10:53:00
5:53 AM,12.0,9.0,88,29.87,10.0,Calm,Calm,-,N/A,,Clear,0,2013-01-08 11:53:00
7:53 AM,12.9,10.0,88,29.91,10.0,South,4.6,-,N/A,,Clear,190,2013-01-08 13:53:00
8:53 AM,21.9,18.0,85,29.88,10.0,SSW,4.6,-,N/A,,Clear,200,2013-01-08 14:53:00
9:53 AM,25.0,21.0,85,29.89,10.0,Calm,Calm,-,N/A,,Clear,0,2013-01-08 15:53:00
10:53 AM,30.9,26.1,82,29.89,10.0,Calm,Calm,-,N/A,,Clear,0,2013-01-08 16:53:00
11:53 AM,37.9,26.1,62,29.87,10.0,Calm,Calm,-,N/A,,Clear,0,2013-01-08 17:53:00
12:53 PM,46.9,28.0,48,29.86,10.0,NW,15.0,21.9,N/A,,Clear,320,2013-01-08 18:53:00
1:53 PM,46.0,28.9,51,29.88,10.0,WNW,12.7,-,N/A,,Clear,290,2013-01-08 19:53:00
2:53 PM,46.0,30.0,54,29.92,10.0,WNW,11.5,-,N/A,,Clear,300,2013-01-08 20:53:00
3:53 PM,48.9,28.0,44,29.96,10.0,WNW,12.7,-,N/A,,Clear,290,2013-01-08 21:53:00
4:53 PM,46.0,28.0,50,29.99,10.0,West,9.2,-,N/A,,Clear,280,2013-01-08 22:53:00
5:53 PM,42.1,28.9,60,30.03,10.0,West,10.4,-,N/A,,Clear,260,2013-01-08 23:53:00
6:53 PM,39.0,28.9,67,30.07,10.0,West,10.4,-,N/A,,Clear,260,2013-01-09 00:53:00
7:53 PM,36.0,27.0,70,30.11,10.0,NW,8.1,-,N/A,,Clear,310,2013-01-09 01:53:00
8:53 PM,33.1,26.1,75,30.14,10.0,NW,5.8,-,N/A,,Clear,310,2013-01-09 02:53:00
9:53 PM,28.0,24.1,85,30.16,10.0,NW,3.5,-,N/A,,Clear,310,2013-01-09 03:53:00
10:53 PM,25.0,21.9,88,30.20,10.0,NNW,4.6,-,N/A,,Clear,330,2013-01-09 04:53:00
11:53 PM,24.1,21.0,88,30.24,10.0,NW,3.5,-,N/A,,Clear,310,2013-01-09 05:53:00